Regional Weather Roundup
Issued by NWS Northern Indiana

Home | Current Version | Previous Version | Graphics & Text | Print | Product List | Glossary On
Versions: 1 2 3 4 5 6 7 8 9 10 11 12 13 14 15 16 17 18 19 20 21 22 23 24 25 26 27 28 29 30 31 32 33 34 35 36 37 38 39 40 41 42 43 44 45 46 47 48 49 50
000
ASUS43 KIWX 202300
RWRIWX

KIWX WEATHER ROUNDUP
NATIONAL WEATHER SERVICE NORTHERN INDIANA
700 PM EDT MON OCT 20 2014

NOTE: "FAIR" INDICATES FEW OR NO CLOUDS BELOW 12,000 FEET WITH NO
SIGNIFICANT WEATHER AND/OR OBSTRUCTIONS TO VISIBILITY.

* THESE STATIONS ARE NOT UNDER NWS QUALITY CONTROL. THEY ALSO MAY NOT
  REPORT WEATHER SUCH AS PRECIPITATION OR FOG.

INZ001>027-210000-
NORTHERN INDIANA

CITY           SKY/WX    TMP DP  RH WIND       PRES   REMARKS
GARY*          MOCLDY    55  48  76 N12       29.94R
SOUTH BEND     CLOUDY    54  48  80 N9        29.91R
ELKHART*       CLOUDY    54  48  82 NW6       29.90R
GOSHEN         CLOUDY    55  48  77 NW14      29.88R
ANGOLA*        MOCLDY    55  45  67 CALM      29.85R
FORT WAYNE     MOCLDY    59  48  67 NW5       29.86R
PERU/GRISSOM   MOCLDY    60  51  70 N10       29.87R

$$
INZ028>050-210000-
CENTRAL INDIANA

CITY           SKY/WX    TMP DP  RH WIND       PRES   REMARKS
LAFAYETTE      CLEAR     60  47  61 NW7       29.88R
KOKOMO*        CLOUDY    61  46  59 N9        29.87R
MUNCIE*        PTCLDY    60  48  64 NW7       29.85R
INDIANAPOLIS   PTCLDY    63  44  50 W9        29.87R

$$
MIZ043>046-050>051-056>058-064>065-071>073-077>080-210000-
SOUTHWEST LOWER MICHIGAN

CITY           SKY/WX    TMP DP  RH WIND       PRES   REMARKS
BATTLE CREEK   CLOUDY    56  47  71 W12       29.86R
BENTON HARBOR  CLOUDY    52  46  80 MISG      29.91R
COLDWATER*     CLOUDY    56  50  80 W9        29.84R
HILLSDALE*     MOCLDY    53  52  96 W3        29.84R
HOLLAND        CLOUDY    54  45  71 NW8       29.90R
GRAND RAPIDS   CLOUDY    56  45  66 NW14      29.87R
KALAMAZOO      CLOUDY    55  47  74 NW9G18    29.87R
STURGIS*       CLOUDY    54  48  82 W9        29.86R
THREE RIVERS*  CLOUDY    55  48  79 W9        29.87R

$$
OHZ001>008-015>018-024>025-210000-
NORTHWEST OHIO

CITY           SKY/WX    TMP DP  RH WIND       PRES   REMARKS
DEFIANCE       CLOUDY    55  51  86 CALM      29.85R
FINDLAY        CLOUDY    55  52  89 W5        29.83S
TOLEDO EXPRESS CLOUDY    54  50  86 W8        29.83R
TOLEDO METCALF CLOUDY    54  50  86 W3        29.84R
LIMA           CLOUDY    55  52  89 S6        29.84S

$$
AND FOR LAKE MICHIGAN COASTAL AND OPEN LAKE BUOY OBSERVATIONS

STATION/POSITION TEMP    WIND        PRES    VSBY  WAVE
                 AIR SEA DIR/SP/G                  HT/PER
                 (F)     (DEG/KT/KT) (MB)    (MI)  (FT/S)
CALUMET HARBOR    54     350/ 10/ 12 1012.3R
MICHIGAN CITY     53     350/ 18/ 20   N/A
SAINT JOSEPH      54                 1013.5R
SOUTH LAKE BUOY   53 55  340/ 17/ 19 1012.3R         3/ 5

$$
&&


USA.gov is the U.S. government's official web portal to all federal, state and local government web resources and services.